Location: Rosenheim
(47.8408°N, 12.2113°E)
Time: 18:02:49
(UTC+01:00)

Tiangong 1 - Visible Passes

Search period start: 19 January 2018 00:00
Search period end: 29 January 2018 00:00
Orbit: 263 x 287 km, 42.8° (Epoch: 19 January)

Date Brightness Start Highest point End Pass type
(mag) Time Alt. Az. Time Alt. Az. Time Alt. Az.
19 Jan 2.3 17:58:23 10° WSW 18:00:31 24° S 18:02:15 13° SE visible
20 Jan 2.4 17:58:00 10° WSW 18:00:05 24° S 18:02:05 11° SE visible
21 Jan 2.7 17:57:32 10° WSW 17:59:32 21° S 18:01:30 10° SE visible
22 Jan 3.1 17:57:05 10° WSW 17:58:51 17° SSW 18:00:36 10° SSE visible
23 Jan 3.4 17:56:41 10° SW 17:58:01 13° SSW 17:59:19 10° SSE visible
